カタログに戻る

ARIANE 3 DEB

運用中GTO
NORAD 20127·DEBRIS·🇫🇷 France

打ち上げ Jul 21, 1988 から Guiana Space Centre

Loading…

TLE

古いSource: Space-Track

元期: Sep 11, 2026, 18:36 UTC

1 20127U 88063E   26254.77551807  .00000092  00000-0  69928-3 0  9994
2 20127   7.3407 213.8641 7149850 113.3057 333.0373  2.35211194320942

AllMySatでARIANE 3 DEBをリアルタイム追跡

Download on the App Store